Starlink 31769

operational
NORAD ID: 59617 Int'l Des: 2024-080 Owner: SPXS Country: US Constellation: starlink
LEOCIRCULAR

Über Starlink 31769

Beschreibung wird geladen...

Live-Position

3D-Globus wird geladen...

Nächste Überflüge

Höhenverlauf

Altitude vs Time

uPlot chart will show altitude changes over time

Zweizeiliger Elementsatz

1 59617U 24080S 25304.64871488 .00004592 00000-0 17615-3 0 9995
2 59617 43.0035 46.9933 0000735 257.0033 103.0737 15.27604649 84797
Epoch: 31. Okt. 2025 • Age: 8 hours

Aktueller Status

Höhe 485.2 km
Geschwindigkeit 7.62 km/s
Subsatellitenpunkt -12.58°S, 0.87°E
Startdatum 28. Apr. 2024
Alter 1.5 years
Typ internet

Technische Details

Klassifizierung Payload
Masse 730.00 kg
Trockenmasse 700.00 kg
Gesamtmasse 730.00 kg
Länge 0.30 m
Durchmesser 4.10 m
Spannweite 29.00 m
Form Box + pan
Hersteller SPXS
Bus-Typ Starlink V2M
Phasenstatus In Orbit
Besitzer/Staat SPXS/US

Große Konstellationen

Loading constellations...